Location: Unspecified
(0.0000°N, 0.0000°E)
Time: 08:38:27
(UTC+00:00)

TIGRISAT - Visible Passes

Search period start: 23 September 2023 00:00
Search period end: 03 October 2023 00:00
Orbit: 598 x 680 km, 97.7° (Epoch: 22 September)

Date Brightness Start Highest point End Pass type
(mag) Time Alt. Az. Time Alt. Az. Time Alt. Az.
23 Sep ? 03:55:48 10° ESE 03:57:42 12° E 03:59:33 10° NE visible
24 Sep ? 04:17:01 10° SE 04:20:44 26° E 04:24:22 10° NNE visible
25 Sep ? 04:39:24 10° SSE 04:43:47 56° ENE 04:48:02 10° N visible
26 Sep ? 05:02:21 10° S 05:06:48 67° WSW 05:11:06 10° NNW visible
27 Sep ? 03:52:28 10° E 03:53:30 11° E 03:54:34 10° ENE visible
27 Sep ? 05:25:53 10° SSW 05:29:47 30° WSW 05:33:36 10° NW visible
28 Sep ? 04:13:02 10° SE 04:16:32 23° E 04:19:56 10° NNE visible
29 Sep ? 04:35:16 10° SSE 04:39:32 48° ENE 04:43:41 10° N visible
30 Sep ? 04:58:07 10° S 05:02:32 76° WSW 05:06:49 10° NNW visible
01 Oct ? 05:21:31 10° SSW 05:25:30 34° WSW 05:29:23 10° NW visible
02 Oct ? 04:09:00 10° SE 04:12:12 20° E 04:15:20 10° NNE visible
